User: anonymous
Location: Red Shale Campground
(45.5700°N, 106.1600°W)
Time: 22:46:49
(UTC-06:00)
Language:

FENGYUN 3A - Orbit

View from above orbital plane
View from above orbital plane
View from above satellite
View from above satellite

Ground track
Ground track

The orbit data is extracted from the following two-line orbital elements,

1 32958U 08026A   14294.72620462  .00000058  00000-0  47669-4 0  4716
2 32958 098.5396 349.2032 0009211 206.5691 153.4997 14.19480068331796
Epoch (UTC): 21 October 2014 17:25:44
Eccentricity: 0.0009211
inclination: 98.5396°
perigee height: 820 km
apogee height: 834 km
right ascension of ascending node: 349.2032°
argument of perigee: 206.5691°
revolutions per day: 14.19480068
mean anomaly at epoch: 153.4997°
orbit number at epoch: 33179

The dashed part of the orbit path shows where the satellite is in the earth's shadow,  

DLR